Location: L�tisburg
(47.3947°N, 9.0820°E)
Time: 02:49:40
(UTC+00:00)

Cosmos 2369 Rocket - Pass Details

Date: 03 March 2021
Orbit: 829 x 852 km, 71.0° (Epoch: 12 April)

Event Time Altitude Azimuth Distance (km) Brightness Sun altitude
Rises 19:45:12 0° 339° (NNW) 3,383 5.9 -26.4°
Reaches altitude 10° 19:49:30 10° 10° (N) 2,447 4.7 -27.0°
Enters shadow 19:51:10 12° 28° (NNE) 2,315 4.4 -27.3°
